Hourly Data Report for March 22, 2006

TORONTO CITY
ONTARIO

43°40'00.000" N
79°24'00.000" W
112.50 m
6158355
71508
XTO

Download Data

Hourly Data (March 2006)
Hourly Data Report for March 22, 2006
TIME
LST
Temp Definition
°C
Dew Point Definition
°C
Rel Hum Definition
%
Precip. Amount Definition
mm

Wind Dir Definition
10's deg

Wind Spd Definition
km/h
Visibility Definition
km
Stn Press Definition
kPa
Hmdx Definition


Wind Chill Definition


Weather Definition


00:00 -0.9 -6.4 66   LegendMM LegendMM   99.75     LegendNANA
01:00 -1.0 -4.3 78   LegendMM LegendMM   99.76     LegendNANA
02:00 -0.9 -4.3 78   LegendMM LegendMM   99.76     LegendNANA
03:00 -1.4 -4.0 82   LegendMM LegendMM   99.80     LegendNANA
04:00 -1.6 -4.9 78   LegendMM LegendMM   99.84     LegendNANA
05:00 -1.8 -5.4 76   LegendMM LegendMM   99.91     LegendNANA
06:00 -1.8 -5.0 79   LegendMM LegendMM   99.96     LegendNANA
07:00 -2.0 -5.7 76   LegendMM LegendMM   100.02     LegendNANA
08:00 -1.8 -6.1 72   LegendMM LegendMM   100.08     LegendNANA
09:00 -1.4 -6.5 68   LegendMM LegendMM   100.12     LegendNANA
10:00 -1.3 -6.6 67   LegendMM LegendMM   100.19     LegendNANA
11:00 0.9 -6.3 59   LegendMM LegendMM   100.19     LegendNANA
12:00 2.5 -5.3 56   LegendMM LegendMM   100.17     LegendNANA
13:00 2.0 -6.3 54   LegendMM LegendMM   100.21     LegendNANA
14:00 2.7 -5.5 55   LegendMM LegendMM   100.21     LegendNANA
15:00 2.5 -5.4 56   LegendMM LegendMM   100.25     LegendNANA
16:00 2.4 -5.3 57   LegendMM LegendMM   100.30     LegendNANA
17:00 2.0 -5.8 56   LegendMM LegendMM   100.36     LegendNANA
18:00 1.8 -5.4 59   LegendMM LegendMM   100.43     LegendNANA
19:00 1.5 -5.4 60   LegendMM LegendMM   100.51     LegendNANA
20:00 1.2 -5.2 62   LegendMM LegendMM   100.55     LegendNANA
21:00 1.0 -5.0 64   LegendMM LegendMM   100.61     LegendNANA
22:00 0.8 -5.1 65   LegendMM LegendMM   100.66     LegendNANA
23:00 0.7 -5.1 65   LegendMM LegendMM   100.68     LegendNANA

Notes on Data Quality.

Legend

  • E = Estimated
  • M = Missing
  • NA = Not Available*
  • [empty] = Indicates an unobserved value
Date modified: